RH
14 15 16 18 20 23 25 26 27 28 28 29 29 30 30 31 31 32 32 32 32 32 31 31 33 36 38 40 42 44 45 45 44 38 39 39 37 37 39 41 44 46 50
14 16 18 20 22 23 25 26 27 28 29 30 30 30 31 32 32 33 34 35 35 36 35 33 34 35 37 39 39 41 42 43 42 39 39 38 37 38 40 44 48 53 53
15 17 18 20 22 24 25 27 28 29 30 31 31 31 32 32 33 35 36 37 37 36 36 33 32 33 35 37 38 39 40 41 41 40 37 38 38 40 44 46 50 50 57
17 18 19 21 22 24 26 27 28 30 31 32 33 33 34 34 35 36 37 38 38 37 36 33 32 33 35 37 37 37 39 39 40 41 39 38 39 43 46 48 49 60 69
19 20 21 22 24 25 26 27 29 31 32 34 35 35 35 35 36 37 38 38 38 36 35 33 32 33 35 35 35 35 37 39 40 42 42 42 43 46 50 55 64 67 66
21 22 23 24 25 25 26 27 29 31 34 36 37 37 37 37 37 38 38 38 38 36 35 32 31 32 34 34 34 37 39 41 43 46 44 45 47 52 59 62 54 44 43
22 23 24 25 26 27 28 29 30 32 34 36 38 40 40 38 38 39 39 39 38 36 34 31 31 31 32 34 36 39 41 45 47 45 47 52 55 56 47 45 42 40 40
24 24 25 26 27 28 29 29 30 32 35 38 40 42 41 39 39 40 41 41 39 38 34 33 32 31 32 36 39 42 43 45 48 49 51 51 47 43 41 37 37 39 34
24 25 26 27 28 29 30 30 31 34 37 39 42 44 42 41 41 42 42 42 40 38 36 34 32 32 34 39 43 43 43 45 47 48 46 39 36 36 37 37 34 34 30
24 25 26 27 28 30 31 31 32 35 38 42 45 45 43 43 44 44 44 42 41 39 37 35 33 34 36 40 42 42 42 40 37 36 30 24 24 27 28 31 32 32 33
23 25 26 27 29 31 32 33 35 37 41 44 47 46 45 45 46 46 46 44 43 40 37 35 35 36 38 39 38 39 33 33 34 26 21 20 25 24 22 24 27 29 31
23 25 26 28 30 32 34 35 37 39 44 47 48 48 47 47 48 49 49 46 44 41 39 38 35 38 38 35 35 33 34 33 25 20 20 19 24 22 22 23 25 29 31
23 25 27 28 30 32 35 37 38 43 46 49 50 50 49 50 50 51 49 47 44 43 41 39 39 40 35 33 35 35 31 24 19 19 19 20 25 25 23 25 26 29 30
25 27 27 29 31 34 36 38 42 46 48 51 52 51 51 51 53 51 50 48 47 45 43 40 41 38 30 33 32 28 25 20 19 20 21 25 29 27 27 28 29 31 33
26 27 29 31 33 35 37 42 46 49 52 53 53 53 53 54 53 52 52 49 47 46 43 42 43 33 28 27 26 23 23 19 22 23 24 30 33 31 31 32 33 34 38
28 29 31 33 35 38 42 46 50 53 54 54 54 55 55 54 54 54 53 48 48 49 44 45 39 27 26 24 21 21 22 20 24 26 28 35 37 33 33 35 35 39 50
31 33 35 37 41 44 48 51 53 54 55 57 57 58 57 56 57 55 50 49 52 47 45 42 31 27 24 21 19 19 20 20 26 29 31 38 39 35 36 39 39 47 60
35 37 39 43 46 49 51 53 54 56 57 59 59 60 59 58 56 53 51 55 51 44 43 36 31 26 21 18 17 17 18 19 26 30 34 38 38 36 41 43 43 54 71
35 38 42 45 48 50 52 53 55 57 60 61 62 61 60 57 55 54 57 55 47 47 40 34 28 22 20 18 17 19 18 19 23 31 36 38 39 39 42 43 46 58 76
38 41 45 48 50 52 53 55 58 60 61 62 62 61 59 56 57 58 56 51 48 43 38 32 25 23 21 19 17 18 19 20 23 31 35 38 38 40 43 45 49 58 73
42 46 49 51 53 55 57 59 62 62 63 62 60 59 59 58 60 59 55 51 46 42 35 29 26 21 19 19 18 20 22 23 28 31 34 38 38 42 42 46 52 59 71
49 52 54 57 60 61 64 63 64 65 64 66 65 65 62 61 60 56 53 51 48 41 35 29 24 22 22 21 22 22 24 30 31 32 34 40 43 43 43 48 53 60 71
57 61 63 66 68 68 67 68 69 71 70 70 69 70 65 58 60 56 54 53 47 42 35 29 27 26 26 25 26 25 26 31 35 38 36 38 46 46 45 49 54 60 72
68 71 72 73 71 70 70 69 71 74 73 70 67 62 62 64 59 57 55 53 47 36 30 27 27 25 25 25 25 26 28 30 35 37 40 39 46 50 46 51 56 61 72
72 74 75 75 75 75 75 77 81 80 74 66 66 67 66 59 59 57 54 46 35 30 28 27 28 28 28 28 26 25 25 27 33 34 37 40 44 53 52 52 57 62 73
79 77 80 79 81 82 88 85 78 71 70 70 71 63 59 58 56 51 43 32 27 25 26 28 29 29 30 31 29 27 27 29 30 33 35 40 43 52 56 54 59 65 74